Regional Weather Roundup
Issued by NWS

Home | Current Version | Previous Version | Graphics & Text | Print | Product List | Glossary On
Versions: 1 2 3 4 5 6 7 8 9 10 11 12 13 14 15 16 17 18 19 20 21 22 23 24 25 26 27 28 29 30 31 32 33 34 35 36 37 38 39 40 41 42 43 44 45 46 47 48 49 50
000
ASUS43 KFSD 011610
RWRSD

WEATHER ROUNDUP FOR SOUTH DAKOTA
NATIONAL WEATHER SERVICE SIOUX FALLS SD
1100 AM CDT FRI AUG 01 2014

NOTE: "FAIR" INDICATES FEW OR NO CLOUDS BELOW 12,000 FEET WITH NO
SIGNIFICANT WEATHER AND/OR OBSTRUCTIONS TO VISIBILITY.


SDZ001>005-009-010-012>017-011700-
NORTHWEST AND NORTH CENTRAL SOUTH DAKOTA

CITY           SKY/WX    TMP DP  RH WIND       PRES   REMARKS
BUFFALO          N/A     78  51  38 CALM      30.02S
FAITH            N/A     79  55  43 S8        30.07S
MOBRIDGE       SUNNY     77  65  66 SE14      30.05S
$$

SDZ012>016-024>037-041>051-057-063-072>074-011700-
SOUTHWEST AND SOUTH CENTRAL SOUTH DAKOTA

CITY           SKY/WX    TMP DP  RH WIND       PRES   REMARKS
RAPID CTY ARPT SUNNY     82  55  39 SE5       30.10S
PIERRE         SUNNY     83  59  44 SE14      30.05F
CUSTER         SUNNY     77  44  30 W7        30.27S
ELLSWORTH AFB  SUNNY     83  52  34 S5        30.10S
PHILIP         SUNNY     84  49  29 CALM      30.07F
PINE RIDGE     SUNNY     79  56  45 W5        30.14F
WINNER         FAIR      83  55  38 SE9       30.11R
$$

SDZ004>011-016>023-039-040-011700-
NORTHEAST SOUTH DAKOTA

CITY           SKY/WX    TMP DP  RH WIND       PRES   REMARKS
ABERDEEN       SUNNY     77  58  51 S5        30.09S
WATERTOWN      SUNNY     76  57  51 VRB3      30.11S
SISSETON         N/A     79  63  57 NE6       30.08R
$$

SDZ017-020-022-023-036>040-048>070-011700-
SOUTHEAST SOUTH DAKOTA

CITY           SKY/WX    TMP DP  RH WIND       PRES   REMARKS
SIOUX FALLS    MOSUNNY   76  62  62 CALM      30.12R
HURON          SUNNY     76  62  62 VRB3      30.10R
CHAMBERLAIN    SUNNY     78  62  58 SE7       30.10S
MITCHELL       SUNNY     76  63  64 SE6       30.11R
YANKTON        SUNNY     70  64  83 CALM      30.12R
$$

ABBREVIATIONS USED IN REMARKS
   TC - TEMPERATURE IN CELSIUS
  WCI - WIND CHILL INDEX
   HX - HEAT INDEX
  VSB - VISIBILITY



USA.gov is the U.S. government's official web portal to all federal, state and local government web resources and services.